RH
100 100 99 100 100 100 100 100 100 100 100 100 100 100 100 100 100 100 100 100 100 100 100 100 100 100 100 100 100 99 99 98 96 94 92 90 88 88 87 87 86 83 81 80 79 79 82 86 88 90 91 90 86 84 83 82 79 75 72 68 64 59 55
100 100 100 100 100 99 99 100 100 100 100 100 100 100 100 100 100 100 100 100 100 100 100 100 100 100 100 100 100 100 100 100 100 99 97 96 95 94 93 93 92 89 87 86 85 85 87 91 93 94 94 93 91 90 90 90 87 83 81 77 74 70 68
99 100 99 100 100 100 100 100 100 100 100 99 100 99 100 100 100 100 100 100 100 100 100 100 100 100 100 100 100 100 100 100 100 100 100 100 99 99 98 98 98 96 94 93 93 94 94 96 98 98 97 97 96 97 97 97 95 94 92 90 88 87 85
95 97 98 99 99 98 98 98 99 99 100 100 100 100 100 100 100 100 100 100 100 100 100 100 100 100 100 100 100 99 100 100 100 100 100 100 100 100 100 100 100 100 99 98 99 99 99 99 100 101 100 99 100 100 100 98 96 95 93 92 92 90 87
75 80 85 90 93 94 93 92 92 92 93 94 95 96 97 97 98 99 99 100 100 100 100 100 100 100 100 100 100 100 100 100 100 100 100 100 100 100 100 100 100 100 100 100 99 100 100 99 100 101 99 98 99 97 93 90 87 85 84 84 83 82 79
68 67 67 70 74 78 81 83 85 87 88 89 91 92 94 94 94 95 95 96 96 97 98 98 98 98 98 98 98 98 99 99 100 100 99 100 100 100 100 100 100 100 100 99 98 98 98 95 94 95 93 90 90 89 85 82 81 80 80 80 78 76 75
81 78 74 71 68 67 67 69 72 75 76 78 80 83 87 89 90 91 92 92 93 93 94 95 95 96 96 96 95 95 96 96 97 97 97 97 98 99 99 98 98 98 97 95 92 91 90 87 85 86 86 84 85 87 84 81 80 77 74 73 70 67 64
87 86 85 84 81 78 75 72 70 69 68 67 66 66 68 71 74 76 78 80 81 82 83 83 83 84 84 85 86 87 88 89 90 91 91 92 94 96 96 95 95 94 93 92 89 86 86 85 83 82 82 81 81 81 77 73 70 65 60 58 56 53 50
86 86 87 87 86 86 85 84 82 79 76 74 71 68 66 65 65 65 66 67 67 68 68 68 68 68 69 70 70 71 72 73 75 75 76 78 81 83 84 84 83 83 82 83 81 78 78 78 74 71 69 66 64 62 60 59 58 54 51 50 48 46 44
85 85 85 86 86 87 87 87 87 85 84 83 81 79 77 74 72 70 68 67 67 66 65 64 63 63 63 63 63 63 63 64 64 64 64 64 65 67 67 66 66 66 66 66 65 63 62 61 58 56 54 52 52 52 53 53 52 50 50 51 48 46 46
86 86 85 85 86 87 87 88 88 88 88 87 86 85 84 83 81 79 77 75 73 71 70 68 67 66 66 65 64 63 62 62 62 61 61 61 61 62 61 61 60 60 60 59 58 57 56 55 53 52 52 52 52 53 54 54 54 53 54 54 52 50 49
93 92 91 90 89 89 89 90 90 91 91 91 91 89 87 86 85 84 83 82 81 79 78 76 74 73 72 71 70 68 67 66 65 64 64 62 62 62 62 62 62 61 61 61 60 60 58 56 55 55 55 55 55 57 57 58 59 57 57 57 56 54 52
97 98 98 98 97 97 96 95 95 95 95 96 95 94 93 91 88 86 86 86 86 86 85 84 83 83 81 80 78 76 75 74 73 73 72 71 69 69 68 67 66 65 66 65 65 63 60 59 60 59 59 59 60 62 62 61 62 61 61 61 59 57 57
90 93 94 96 97 99 100 100 100 100 99 99 97 98 98 95 90 89 90 91 91 90 89 89 89 89 89 89 88 86 84 83 82 81 81 80 79 78 77 76 75 74 73 72 71 68 65 64 66 66 65 65 66 66 65 65 65 65 64 64 63 62 62
77 79 81 82 84 86 88 90 91 93 94 95 96 97 97 95 91 90 92 93 93 92 92 93 92 92 92 92 93 92 91 89 88 87 86 86 85 84 83 82 81 80 80 79 77 75 71 70 71 70 70 70 70 69 69 69 69 69 68 68 66 65 63
66 67 68 69 70 71 72 73 74 75 77 79 81 83 85 86 87 87 88 89 89 89 89 90 90 92 93 92 92 93 93 93 92 92 91 89 88 88 87 86 85 85 85 83 82 80 77 75 75 74 74 74 73 72 72 72 72 71 70 70 69 67 66
56 56 56 57 58 58 60 61 61 62 62 63 64 65 67 69 71 72 74 76 78 79 80 81 82 83 85 85 85 86 86 87 88 88 88 87 87 87 86 86 86 86 86 86 85 84 82 80 79 78 77 77 76 75 74 75 74 71 70 71 70 68 67
43 43 42 43 44 45 46 48 48 50 51 51 52 53 54 55 56 58 59 60 62 63 64 65 67 68 70 71 72 73 73 75 76 76 76 76 76 77 77 77 78 79 79 80 81 81 80 78 77 77 76 76 76 75 75 74 72 70 71 72 70 68 68
28 28 27 26 26 27 28 30 31 33 34 36 37 38 39 42 44 46 48 49 49 50 51 52 52 53 54 55 56 58 59 60 61 61 62 63 63 64 65 65 66 66 67 68 69 70 70 70 70 71 71 72 72 73 74 72 69 70 71 71 69 69 70
17 17 16 15 15 15 15 16 16 17 18 19 20 20 22 24 27 30 31 33 36 38 40 41 42 42 42 43 44 46 47 48 49 49 50 51 51 52 53 53 54 54 55 56 57 58 59 60 61 62 63 65 66 68 70 69 67 67 68 69 69 70 70
17 17 16 16 16 16 16 15 15 15 16 16 15 15 15 15 15 16 17 18 20 22 24 26 27 28 29 29 30 31 32 34 35 37 38 40 42 43 43 44 44 45 45 46 46 47 49 50 52 53 55 56 58 59 60 62 62 62 63 63 65 66 66
29 28 28 28 28 27 26 25 23 23 23 23 22 21 21 19 18 17 16 15 14 14 15 16 16 16 17 18 18 19 20 20 21 22 24 26 28 29 31 32 34 35 36 37 37 38 39 40 41 43 45 47 48 49 51 53 54 55 56 57 59 61 62
37 36 35 34 34 33 32 30 29 28 28 27 27 26 25 24 24 23 21 20 19 18 17 17 15 15 15 15 16 16 16 16 16 16 17 17 18 18 19 19 21 22 23 24 25 26 27 29 30 31 33 35 37 39 41 43 45 47 49 52 53 55 57
36 35 33 32 32 31 30 29 29 28 28 27 27 26 26 26 25 25 24 23 22 22 21 20 19 19 19 18 18 18 18 18 18 17 17 17 17 17 17 17 16 16 16 16 16 16 16 17 18 19 20 22 23 25 28 31 35 38 40 44 46 49 53
34 33 32 31 31 31 31 31 30 29 29 29 28 28 27 27 26 26 25 24 23 23 22 22 21 20 20 20 20 20 19 19 19 19 19 19 19 19 19 19 19 19 19 18 17 17 16 15 15 15 14 15 15 15 17 19 23 27 30 35 40 44 50
36 36 35 35 34 33 33 34 33 33 33 33 32 31 31 30 29 28 27 26 25 24 23 23 22 21 21 21 21 21 20 20 20 19 19 20 20 20 20 21 21 21 21 21 21 21 21 20 19 19 18 18 17 15 15 16 18 21 25 29 35 42 49
42 41 41 40 39 38 38 37 37 37 38 38 37 36 35 34 33 32 32 30 28 27 26 24 23 23 23 23 23 22 22 21 20 21 21 21 21 22 22 23 24 23 23 22 23 23 24 23 23 23 23 22 22 22 21 21 22 26 29 31 36 44 50
48 48 48 47 45 44 43 42 42 43 45 45 43 42 41 40 39 37 36 34 32 31 29 27 26 26 26 26 26 25 24 24 23 23 23 22 22 24 25 27 28 28 27 26 26 26 26 26 27 27 26 27 28 29 28 29 32 36 38 41 47 56 62
55 55 55 54 52 51 50 48 48 51 53 52 50 49 47 46 44 43 41 40 38 36 34 32 32 31 31 31 30 28 28 29 30 29 27 27 27 27 29 32 33 33 33 34 34 33 32 32 32 32 33 33 35 36 37 38 43 48 53 60 71 80 86
63 62 61 59 57 57 55 53 53 56 58 58 58 57 55 53 51 50 48 47 45 43 41 39 38 37 36 35 34 33 33 36 38 37 35 37 38 38 38 40 41 41 42 43 44 43 41 41 40 40 41 42 43 45 46 50 57 67 77 86 93 98 100
66 65 64 61 59 58 57 56 56 56 57 59 61 61 61 59 58 57 55 53 51 49 47 45 43 42 41 40 39 38 38 41 45 45 45 49 53 55 55 54 54 54 54 54 55 54 52 51 50 49 49 50 51 52 55 62 75 88 96 99 101 101 101
66 65 64 62 60 58 57 56 56 56 56 58 59 61 62 62 62 62 61 60 58 55 53 51 48 46 45 44 43 43 44 46 48 49 51 55 61 68 71 70 70 72 73 69 67 65 63 61 60 58 57 57 57 60 68 79 91 99 100 100 100 100 100
68 67 65 63 62 61 59 57 56 57 57 59 60 62 63 63 65 67 67 66 64 61 58 56 54 51 49 48 47 46 47 49 50 52 55 58 64 72 77 79 83 89 89 84 80 77 73 70 68 66 64 63 64 72 85 95 100 101 100 100 100 100 100
71 71 69 66 65 65 63 61 60 60 61 62 64 64 65 67 69 72 72 71 69 67 65 62 60 57 54 53 51 50 50 51 53 55 58 62 68 74 79 84 91 97 98 96 94 90 84 80 78 77 75 74 77 87 97 101 100 100 100 100 100 100 100
72 72 71 69 68 67 66 64 64 65 66 68 68 67 68 71 73 74 75 75 73 71 69 66 65 63 61 59 58 56 55 53 54 56 60 65 70 75 79 85 93 99 104 105 102 99 96 92 90 90 90 91 93 99 102 101 99 100 100 100 100 100 100
71 71 70 69 68 67 66 65 66 68 70 73 74 73 73 74 75 76 78 78 77 75 73 70 69 68 66 65 64 63 61 59 58 59 62 67 73 77 80 85 91 98 104 107 104 102 103 101 99 98 99 99 101 102 102 100 100 100 100 99 100 100 100
Wind_Speed
33 32 33 34 34 35 35 35 37 38 39 42 44 47 49 50 51 52 53 54 54 54 54 54 54 54 55 55 55 55 55 55 55 55 55 55 55 55 55 54 55 55 54 54 53 52 51 50 51 50 49 49 48 48 48 48 48 48 48 49 49 49 49
33 33 34 35 36 36 35 35 35 35 36 37 39 42 44 46 48 49 50 50 50 51 51 52 52 53 53 53 53 53 54 54 55 55 55 56 56 55 55 55 55 55 55 55 55 54 53 52 52 51 50 50 50 49 50 50 50 50 51 51 51 52 52
33 34 34 35 36 37 37 37 36 35 35 35 35 37 39 41 43 44 46 47 47 48 49 49 50 50 50 51 51 51 52 52 53 54 55 55 56 56 56 56 56 56 57 57 56 56 55 54 52 52 51 51 51 51 51 51 51 52 52 52 53 53 53
33 34 35 35 36 37 38 39 39 38 38 37 37 37 37 38 39 41 42 43 43 44 45 46 47 47 47 48 49 49 50 50 51 51 52 53 54 55 55 56 56 57 57 57 57 57 56 55 52 52 52 52 51 51 51 51 51 51 51 51 52 52 53
30 32 33 34 35 36 36 37 38 39 39 39 39 38 38 39 40 41 41 42 43 43 44 44 45 46 46 46 47 48 48 48 48 48 49 50 50 51 52 52 53 53 54 55 55 55 55 54 52 51 52 51 50 50 50 49 50 50 49 50 50 50 50
29 30 31 31 32 33 34 35 36 37 38 38 39 39 39 39 39 40 41 41 42 43 43 44 45 45 46 46 47 47 48 48 48 48 48 49 49 49 50 50 50 51 52 53 54 54 54 54 52 51 51 50 49 49 49 49 49 49 48 48 48 47 47
30 31 31 31 32 32 33 34 34 35 36 36 37 38 38 39 39 39 40 40 40 41 41 42 42 43 43 44 44 45 46 46 46 47 48 49 49 49 50 50 51 51 52 53 54 54 54 55 53 51 50 51 50 49 50 49 48 47 46 45 45 45 44
32 33 33 33 33 34 34 34 35 35 35 36 36 37 37 38 38 38 39 39 39 39 39 39 40 40 40 40 41 41 42 42 43 44 45 45 46 46 47 48 48 49 50 50 52 53 52 53 53 51 50 50 49 48 48 46 44 43 43 43 43 44 44
34 35 35 35 36 36 36 36 36 37 37 37 37 37 37 37 37 38 38 38 38 38 38 38 39 39 39 38 38 39 39 39 39 40 41 41 41 42 43 43 44 44 45 46 47 48 48 49 49 48 47 46 45 44 43 42 42 43 43 44 44 45 46
36 37 37 38 38 38 38 38 39 39 39 40 40 39 39 39 39 39 39 39 39 39 39 39 40 40 40 39 39 39 39 39 39 39 40 40 40 40 41 41 41 42 42 43 44 45 45 46 46 46 46 45 44 43 43 44 45 45 45 46 47 48 48
39 39 39 40 40 40 41 41 41 41 41 41 42 42 42 42 42 42 42 42 42 42 42 42 42 42 42 42 42 42 42 42 42 42 42 43 42 42 43 43 43 44 44 45 46 46 47 48 48 47 47 47 46 46 46 46 47 47 48 49 50 50 50
42 42 43 43 43 43 43 43 43 44 44 44 44 44 44 44 44 44 45 45 45 45 45 45 45 45 45 45 45 45 45 46 46 46 46 46 46 46 46 46 46 47 47 48 48 49 50 50 50 49 49 49 48 48 48 48 49 51 51 52 53 53 53
45 45 46 46 46 46 46 46 46 47 47 47 47 47 47 48 48 47 47 47 47 47 47 47 47 47 47 48 48 48 48 48 48 48 48 48 49 49 48 48 49 49 49 50 51 51 52 51 51 51 51 50 50 50 51 51 52 53 53 54 55 54 55
48 49 49 49 49 49 49 49 49 49 50 50 51 51 51 52 52 52 51 51 50 50 50 50 50 50 50 50 50 51 51 51 51 51 51 51 51 51 51 51 51 51 52 53 53 54 54 53 53 53 53 53 53 53 54 54 55 55 55 56 56 56 57
51 51 51 52 52 52 52 52 52 52 52 53 53 54 55 55 56 56 56 55 55 55 54 54 54 54 53 53 53 54 54 54 55 55 55 54 54 54 54 54 54 54 55 56 56 57 57 56 56 56 56 56 56 56 56 57 57 57 58 58 60 60 61
51 52 52 53 54 54 54 54 54 55 55 55 55 56 57 57 58 59 59 59 59 59 59 59 58 57 57 57 57 57 57 58 58 58 58 58 58 58 58 58 58 58 59 59 59 59 60 59 59 59 59 59 60 59 59 59 60 60 61 62 63 63 63
53 53 54 54 54 55 55 56 56 56 57 57 57 58 58 59 60 60 61 61 62 62 62 61 61 61 61 61 61 61 61 60 60 61 62 62 61 61 61 61 61 62 62 62 62 62 62 62 62 62 62 62 62 62 61 61 63 63 63 63 64 64 64
57 57 57 57 57 58 58 58 58 59 59 59 60 60 61 61 61 62 62 63 63 63 62 62 62 63 64 64 65 65 64 64 64 64 64 64 64 63 63 63 63 64 64 63 64 64 64 64 64 64 64 64 64 64 63 64 65 64 64 64 65 65 64
61 60 60 60 60 60 60 60 60 60 61 61 62 63 63 64 64 64 64 64 64 63 63 63 63 63 64 65 66 66 67 66 67 67 65 65 65 66 66 65 65 65 65 64 65 65 65 65 65 65 66 66 65 65 65 66 66 65 65 66 66 65 64
60 60 60 59 59 59 59 59 59 59 60 60 61 62 63 64 65 65 65 65 66 66 66 66 65 64 64 65 66 66 67 67 67 68 67 66 67 67 67 67 67 67 67 67 66 66 65 65 65 65 66 66 66 66 66 67 67 66 66 66 65 64 64
56 56 56 55 56 56 56 56 56 56 56 56 56 57 58 60 61 62 63 64 65 66 66 67 66 66 65 65 65 65 66 66 67 67 68 68 68 68 68 69 69 69 69 69 68 68 67 66 65 65 65 65 66 66 65 66 66 66 67 66 64 63 63
51 52 51 51 51 52 52 53 53 53 52 52 51 52 53 54 55 57 58 60 61 62 63 64 64 65 64 64 64 63 64 64 64 65 66 66 66 67 67 68 69 70 70 70 70 69 69 69 67 67 66 65 66 65 65 65 65 64 65 65 63 62 62
49 49 49 48 48 48 48 49 49 50 50 50 49 49 49 50 51 52 53 55 56 57 58 59 60 61 61 61 61 61 61 61 62 62 62 63 63 63 64 65 66 67 68 68 69 69 69 69 69 69 68 66 66 65 64 64 63 62 61 62 62 61 61
47 47 46 46 45 45 46 46 47 47 47 48 48 47 47 48 48 49 50 52 53 54 55 56 56 56 56 57 57 58 58 58 59 59 60 60 60 60 60 61 61 62 63 64 65 65 66 66 67 67 67 66 65 65 64 62 62 61 60 60 61 60 59
45 45 45 44 44 44 43 44 44 45 45 46 46 46 46 47 47 48 49 50 51 52 53 53 53 54 54 55 55 55 56 56 56 56 57 57 57 57 57 57 57 58 58 59 60 60 61 61 62 62 62 61 62 63 61 60 59 60 60 60 59 58 57
44 44 44 44 44 43 43 43 43 43 43 44 44 45 45 46 47 47 48 48 49 50 50 51 52 52 53 53 53 53 54 54 54 54 54 54 54 54 54 54 54 54 55 55 56 56 56 56 56 56 56 56 57 58 57 56 55 56 57 57 57 56 56
44 44 44 44 43 43 43 42 42 42 41 42 43 44 44 45 45 45 45 46 47 47 48 49 50 50 49 50 50 51 52 52 52 52 52 51 51 51 50 50 50 51 51 52 52 52 52 52 52 52 52 52 52 52 52 51 50 51 52 53 53 53 53
44 44 44 44 44 43 43 42 42 41 40 40 41 42 42 43 43 43 43 44 44 45 46 47 47 46 45 45 46 47 48 49 49 49 49 49 49 48 48 47 47 48 48 48 48 48 48 48 48 49 49 49 48 48 48 47 46 46 47 48 48 48 48
43 43 43 43 43 43 43 42 41 39 39 39 40 40 40 41 41 41 42 42 42 43 43 44 44 43 42 42 43 44 45 45 46 46 46 46 45 45 44 44 44 44 44 45 45 45 45 44 44 45 45 44 44 44 43 43 42 42 43 43 44 44 44
42 42 42 43 43 43 43 42 41 39 39 38 38 38 39 40 40 40 40 40 41 41 41 41 41 41 41 41 41 42 42 43 42 42 42 42 42 42 41 40 40 41 41 41 41 41 41 41 41 41 41 40 40 40 39 39 39 39 39 39 39 40 41
41 41 42 42 43 43 42 42 41 40 39 38 38 38 38 39 39 39 40 39 39 39 40 40 40 40 40 39 39 40 40 40 40 40 40 40 40 39 38 38 37 37 37 37 37 37 37 37 38 38 38 37 37 37 37 37 37 37 36 36 36 38 39
40 40 41 41 42 42 42 41 41 40 40 39 38 38 38 38 38 38 38 38 38 39 39 39 39 39 38 38 38 38 38 38 38 38 38 38 38 37 36 36 36 35 34 34 34 34 34 34 34 35 35 35 35 35 35 36 37 37 37 37 37 38 37
39 39 40 40 40 41 41 41 40 40 39 39 38 38 38 37 37 36 36 37 38 38 38 38 38 38 37 36 36 36 36 36 36 36 37 37 36 36 35 35 35 34 33 33 32 32 32 32 32 32 33 33 34 34 35 36 36 37 37 37 38 37 36
37 38 39 40 39 39 40 40 40 39 38 38 38 38 38 37 36 35 35 36 37 37 37 36 36 36 36 36 35 35 35 34 34 35 35 36 35 35 34 34 34 33 33 32 31 31 31 30 30 30 31 31 32 33 34 35 35 35 35 36 36 36 35
35 36 37 38 39 39 39 39 38 38 37 37 37 37 37 36 36 35 35 35 36 36 36 35 35 35 35 35 34 34 33 33 33 34 34 34 34 34 34 33 33 33 32 32 31 31 31 30 29 29 29 30 30 31 32 32 32 32 32 33 33 34 34
35 35 35 36 37 38 39 38 37 37 36 36 37 37 36 36 36 36 35 34 35 35 35 35 35 34 34 34 33 33 32 32 32 33 33 33 33 33 33 33 33 33 32 32 31 31 31 31 31 30 30 30 30 30 30 30 29 29 30 31 32 34 35
Wind_Direction
266 266 265 263 262 259 257 254 253 252 251 250 248 247 245 244 245 246 247 248 248 249 250 251 252 252 252 253 253 254 255 255 255 256 256 256 257 257 258 258 259 262 263 263 262 261 259 258 259 258 258 256 255 255 256 258 258 258 258 258 259 260 260
264 264 263 262 261 260 258 256 255 253 252 251 251 250 250 249 249 250 250 252 252 253 254 254 254 254 255 255 256 257 257 257 257 257 257 258 258 259 259 259 260 262 263 264 264 264 262 261 260 260 259 258 257 257 258 258 258 258 258 259 260 261 261
261 261 261 261 262 262 262 262 260 258 256 253 251 251 251 251 251 252 252 253 253 253 254 254 254 254 254 255 255 256 257 257 257 258 258 259 259 260 260 260 261 262 264 265 265 265 265 263 262 262 262 260 260 259 259 259 258 258 259 259 260 261 262
260 260 260 260 260 261 262 263 263 263 262 260 257 254 252 251 251 251 251 252 252 252 252 252 253 253 253 254 254 255 255 256 256 257 258 259 259 260 260 261 261 262 263 264 264 265 265 264 264 264 263 262 262 262 261 261 260 259 259 259 260 261 261
260 260 260 260 261 261 261 261 262 263 264 264 263 261 259 256 254 253 252 252 252 252 252 252 252 253 253 253 254 254 254 254 255 255 256 256 257 257 258 258 259 259 260 261 262 262 263 263 262 262 262 262 263 263 262 261 261 260 259 259 260 260 261
262 261 261 261 261 261 261 262 262 262 263 263 264 264 263 262 261 259 258 256 255 254 253 252 252 252 253 253 253 254 254 254 254 254 255 255 255 255 255 256 256 256 257 257 259 259 260 260 260 260 260 261 261 262 261 260 260 259 260 260 260 260 261
267 266 265 264 263 263 262 262 262 261 261 262 262 263 263 263 263 263 263 262 261 259 258 257 255 254 254 254 254 254 254 254 255 255 255 255 256 256 256 256 256 256 256 257 257 258 259 260 260 259 259 259 260 260 260 259 259 259 260 260 261 260 259
270 269 269 268 267 266 265 264 264 263 262 261 261 261 261 262 262 262 263 263 263 262 262 261 260 259 258 256 256 255 255 255 255 255 255 255 256 256 256 256 256 257 257 257 257 258 258 259 260 259 259 259 259 259 260 261 262 260 259 258 258 257 256
271 271 271 270 269 268 267 267 266 265 264 263 262 261 261 260 260 260 260 260 260 260 260 260 260 260 260 259 258 257 256 256 256 255 255 255 255 256 256 256 256 256 256 256 256 257 258 258 259 259 259 259 259 261 262 263 262 260 259 258 257 256 256
273 272 272 272 271 271 270 269 268 267 266 265 265 263 262 261 260 259 259 259 258 258 258 258 258 258 258 258 258 258 257 257 256 256 256 256 256 256 256 256 256 256 256 256 256 257 257 258 258 259 259 260 261 262 262 262 261 261 261 261 259 258 257
273 272 272 271 271 271 271 270 269 268 267 267 266 265 264 263 262 261 260 259 259 258 258 258 257 257 257 257 257 257 257 257 257 257 257 257 256 256 256 257 257 257 257 257 257 257 258 258 258 259 260 261 261 262 262 263 263 263 263 262 262 261 260
272 271 271 270 270 270 269 270 270 269 269 268 267 266 265 264 263 262 261 260 260 259 259 259 259 259 259 258 258 258 258 257 257 257 257 257 257 257 257 257 257 258 258 258 258 258 258 259 259 260 261 261 262 263 263 263 263 263 263 263 263 264 264
269 269 269 269 268 268 268 268 268 268 268 268 268 267 267 266 265 263 262 261 261 260 260 260 259 260 260 260 260 259 259 258 258 258 258 257 257 257 257 257 257 258 258 258 258 258 258 259 260 260 261 262 262 263 263 263 263 263 264 264 265 265 265
268 268 268 268 268 267 267 267 267 266 266 267 267 267 267 267 267 266 265 264 263 262 261 261 260 260 260 260 260 260 260 260 259 259 259 258 258 258 258 258 258 258 258 259 259 259 259 259 260 261 261 262 262 262 262 263 263 264 264 264 264 264 264
268 268 268 268 268 267 267 267 267 267 266 266 266 266 266 266 266 266 266 266 265 265 264 263 262 262 261 261 261 262 262 262 261 261 260 260 260 260 259 259 259 259 259 259 260 260 260 260 261 261 261 262 262 262 263 263 264 264 264 264 264 264 264
270 269 269 268 268 268 268 268 268 268 268 267 267 266 266 266 266 266 266 266 266 266 265 265 265 264 264 263 263 262 262 263 263 263 263 262 261 261 261 261 261 261 261 261 261 261 261 261 261 262 262 262 262 262 263 263 263 263 263 264 264 265 265
273 272 271 270 270 269 269 269 269 269 269 269 268 268 267 267 266 266 266 266 265 265 266 266 266 266 266 265 264 264 263 263 263 263 263 263 263 262 262 262 263 262 262 262 262 262 262 262 262 263 262 262 262 263 263 262 262 263 264 264 265 266 266
276 275 274 273 272 271 270 269 269 269 269 269 269 268 268 268 267 267 267 266 266 266 266 266 266 266 266 265 265 265 264 264 263 263 264 264 264 263 263 263 262 262 262 262 262 262 263 263 263 263 263 263 263 263 262 262 262 264 264 264 264 266 266
277 277 276 275 274 273 272 271 270 269 268 268 268 268 267 267 267 267 267 267 267 266 266 265 265 264 265 265 265 264 264 264 264 264 264 264 265 264 264 264 263 263 262 262 261 262 262 262 263 263 262 263 263 262 262 262 263 263 263 264 265 266 266
277 277 276 276 276 275 274 273 272 270 269 268 267 267 267 266 266 266 266 266 266 266 265 265 265 264 264 264 264 264 264 264 264 264 264 263 264 264 265 265 264 264 263 263 262 262 261 261 262 262 262 262 262 262 263 263 264 264 263 264 265 265 265
278 277 276 276 275 275 275 274 273 272 271 270 268 268 267 267 266 266 265 265 265 265 265 265 265 264 264 264 264 264 264 264 263 263 263 262 262 263 263 263 264 264 264 264 264 263 263 262 261 261 262 262 262 262 262 263 264 264 264 264 265 265 265
278 278 277 276 275 275 274 274 273 273 272 271 270 269 268 267 267 266 266 265 265 265 265 264 264 264 264 264 264 264 264 264 263 263 263 263 262 262 261 261 262 262 263 263 263 263 263 263 262 261 261 262 262 263 263 262 263 263 264 265 264 264 264
279 278 277 276 275 274 273 273 273 272 272 271 270 270 269 268 267 267 266 266 265 265 265 264 264 264 264 264 264 264 264 264 264 264 264 264 263 263 262 262 261 262 262 262 263 263 263 263 262 262 261 261 261 262 262 262 263 263 263 263 263 263 262
278 277 276 275 274 273 273 273 272 272 272 271 271 270 269 269 268 267 266 266 265 265 264 264 265 265 265 264 264 264 263 263 264 264 264 264 264 264 263 263 263 262 262 262 262 262 262 262 263 263 262 262 261 261 260 261 262 262 261 261 261 261 261
277 276 276 275 274 273 273 272 272 272 272 271 271 270 269 268 268 267 266 266 266 265 265 266 266 265 265 264 264 264 263 263 263 264 264 264 265 265 264 264 264 263 263 263 263 263 263 263 263 263 263 263 262 261 260 260 260 260 260 259 260 260 259
278 277 276 275 275 274 273 272 272 272 272 271 271 270 270 269 268 268 268 267 267 267 267 266 266 265 265 265 265 265 265 264 264 263 263 264 264 264 264 264 264 263 263 263 263 263 263 263 263 263 262 262 262 262 261 259 258 257 257 257 257 257 257
279 279 278 277 276 275 274 273 272 271 271 270 270 270 269 269 269 269 269 269 268 268 267 267 267 267 267 267 267 266 266 265 264 264 263 263 263 263 263 264 264 263 263 263 263 263 263 263 263 263 262 261 261 261 260 259 257 255 255 255 254 254 254
279 279 279 278 277 277 275 274 273 272 271 270 270 269 269 270 270 270 269 269 269 269 268 268 268 268 268 268 268 268 267 267 266 265 264 263 263 263 263 263 263 263 263 263 263 263 262 262 262 262 261 261 260 260 259 258 256 254 253 253 253 252 252
279 279 278 278 278 277 276 275 275 274 273 272 271 270 270 269 269 269 269 269 269 269 269 269 270 270 269 268 268 268 268 268 268 267 267 266 265 264 263 262 262 262 262 262 262 262 262 261 261 261 261 260 260 259 258 257 255 253 251 250 250 250 250
280 279 278 278 277 277 276 276 275 274 273 272 271 271 270 269 269 268 268 268 269 269 270 270 270 270 269 269 268 267 268 268 268 268 268 268 267 266 265 263 262 262 261 261 261 261 261 261 260 260 259 259 258 257 256 254 252 249 248 248 248 248 248
280 279 279 278 277 277 276 276 276 274 273 272 271 270 269 269 268 268 268 269 269 269 268 268 268 268 268 268 267 267 267 266 266 267 266 266 266 266 266 265 263 262 261 260 259 259 259 259 258 257 257 256 255 254 253 250 247 243 242 242 244 246 246
280 279 279 278 278 278 278 277 276 276 275 273 272 271 269 269 268 268 268 268 268 267 267 267 267 267 267 267 266 266 265 265 265 264 264 263 263 263 263 264 263 262 261 260 259 258 257 256 256 255 254 253 252 251 249 247 243 240 237 238 241 244 246
281 280 279 279 279 279 279 278 277 277 276 275 274 272 271 270 269 268 267 267 266 266 266 267 267 267 266 266 265 264 264 263 263 263 262 262 261 260 260 261 261 261 260 259 259 257 255 254 253 253 252 250 249 247 245 244 242 239 237 238 240 243 245
280 280 280 280 279 279 278 278 278 278 277 276 275 274 273 272 270 268 267 266 266 266 265 266 266 266 265 265 264 264 263 263 262 262 261 261 260 260 259 258 258 258 258 258 257 256 254 252 251 250 250 249 246 244 242 242 241 239 238 239 241 242 243
278 278 279 279 279 279 278 278 278 278 278 277 276 274 274 273 271 269 267 266 266 266 265 265 264 264 264 264 264 264 263 262 262 261 260 260 259 259 258 257 256 256 256 255 255 254 252 250 248 247 247 247 246 244 242 241 240 239 239 239 240 240 239
278 277 277 277 277 278 278 278 278 277 277 276 275 274 273 272 271 270 269 268 267 266 266 266 265 264 264 264 263 263 262 262 261 260 260 259 259 258 258 257 256 255 254 253 252 251 250 248 245 243 243 244 244 243 242 241 239 238 236 236 236 236 236